DW5244 Weather Reports


Display with metric or nautical units.
time (UTC)temp
F
wind
direction
speed
MPH
gust
MPH
rain 1hr
in
rain 24hr
in
rain mn
in
humidity
%
barometer
mb
20260902073021 75 360 8.0 13.0 0.00 0.00 0.00 63 1017.3
20260902071529 75 360 6.0 12.0 0.00 0.00 0.00 64 1017.4
20260902070015 76 360 7.0 13.0 0.00 0.00 0.00 60 1017.4
20260902064514 77 360 8.0 12.0 0.00 0.00 0.00 57 1017.4
20260902063023 77 360 7.0 10.0 0.00 0.00 0.00 57 1017.4
20260902061510 78 360 2.0 9.0 0.00 0.00 0.00 55 1017.4
20260902060006 78 360 6.0 11.0 0.00 0.00 0.00 54 1017.6
20260902054510 78 360 4.0 8.0 0.00 0.00 0.00 53 1017.5
20260902053009 78 360 3.0 6.0 0.00 0.00 0.00 54 1017.4
20260902051501 78 360 6.0 9.0 0.00 0.00 0.00 53 1017.3
20260902050101 78 360 6.0 10.0 0.00 0.00 0.00 52 1017.4
20260902044558 79 360 5.0 10.0 0.00 0.00 0.00 52 1017.4
20260902043103 79 348 4.0 9.0 0.00 0.00 0.00 51 1017.2
20260902041555 79 360 1.0 5.0 0.00 0.00 0.00 50 1017.3
20260902040055 80 360 6.0 12.0 0.00 0.00 0.00 49 1017.1
20260902034554 81 360 4.0 13.0 0.00 0.00 0.00 47 1017.1
20260902033154 81 360 6.0 10.0 0.00 0.00 0.00 45 1016.8
20260902031553 82 360 11.0 18.0 0.00 0.00 0.00 44 1016.4
20260902030053 82 360 11.0 22.0 0.00 0.00 0.00 45 1016.1
20260902024552 82 360 12.0 21.0 0.00 0.00 0.00 44 1015.8
20260902023054 81 360 9.0 16.0 0.00 0.00 0.00 41 1015.6
20260902021557 81 360 11.0 16.0 0.00 0.00 0.00 49 1015.2
20260902020051 81 360 13.0 19.0 0.00 0.00 0.00 45 1015.0
20260902014550 80 360 11.0 19.0 0.00 0.00 0.00 47 1014.9
20260902013050 81 338 15.0 18.0 0.00 0.00 0.00 50 1014.7
20260902011548 81 360 11.0 19.0 0.00 0.00 0.00 47 1014.6
20260902010050 81 351 16.0 20.0 0.00 0.00 0.00 48 1014.5
20260902004548 81 342 15.0 20.0 0.00 0.00 0.00 49 1014.5
20260902003047 82 175 19.0 25.0 0.00 0.00 0.00 47 1014.3
20260902001547 83 349 16.0 22.0 0.00 0.00 0.00 46 1014.2
20260902000051 82 360 16.0 23.0 0.00 0.00 0.00 46 1014.3
20260901234556 83 156 17.0 23.0 0.00 0.00 0.00 48 1014.1
20260901233045 84 360 17.0 22.0 0.00 0.00 0.00 47 1013.9
20260901231544 87 344 18.0 23.0 0.00 0.00 0.00 39 1013.7
20260901230047 86 338 20.0 28.0 0.00 0.00 0.00 41 1013.4
20260901224543 89 360 15.0 23.0 0.00 0.00 0.00 37 1013.3
20260901223041 92 180 7.0 17.0 0.00 0.00 0.00 30 1013.5
20260901221606 92 100 6.0 14.0 0.00 0.00 0.00 31 1013.4
20260901220040 93 168 14.0 20.0 0.00 0.00 0.00 31 1013.2
20260901214540 97 270 7.0 16.0 0.00 0.00 0.00 23 1013.2
20260901213059 100 219 14.0 19.0 0.00 0.00 0.00 22 1013.1
20260901211543 101 234 3.0 14.0 0.00 0.00 0.00 23 1013.3
20260901210038 98 247 2.0 10.0 0.00 0.00 0.00 24 1013.5
20260901204533 97 247 0.0 15.0 0.00 0.00 0.00 26 1013.8
20260901203041 98 360 8.0 16.0 0.00 0.00 0.00 23 1014.2
20260901201527 96 285 3.0 12.0 0.00 0.00 0.00 25 1014.4
20260901200038 95 227 0.0 6.0 0.00 0.00 0.00 27 1014.6
20260901194524 93 360 6.0 10.0 0.00 0.00 0.00 28 1014.8
20260901193025 98 360 10.0 13.0 0.00 0.00 0.00 25 1015.0
20260901191523 95 281 4.0 10.0 0.00 0.00 0.00 26 1015.4
20260901190021 95 294 4.0 15.0 0.00 0.00 0.00 28 1015.5
20260901184517 96 360 4.0 8.0 0.00 0.00 0.00 27 1015.9
20260901183012 93 220 2.0 12.0 0.00 0.00 0.00 30 1016.2
20260901181512 93 360 6.0 10.0 0.00 0.00 0.00 30 1016.5
20260901180005 92 360 6.0 10.0 0.00 0.00 0.00 31 1016.7
20260901174502 91 306 1.0 12.0 0.00 0.00 0.00 32 1016.7
20260901173058 92 360 3.0 11.0 0.00 0.00 0.00 32 1016.9
20260901171605 92 264 4.0 11.0 0.00 0.00 0.00 32 1016.9
20260901170052 90 193 3.0 9.0 0.00 0.00 0.00 37 1017.0
20260901164549 88 283 1.0 5.0 0.00 0.00 0.00 35 1017.0
20260901163046 89 262 1.0 4.0 0.00 0.00 0.00 35 1017.1
20260901161542 88 170 4.0 8.0 0.00 0.00 0.00 38 1017.1
20260901160038 86 211 1.0 6.0 0.00 0.00 0.00 38 1017.0
20260901154534 86 215 2.0 7.0 0.00 0.00 0.00 39 1017.0
20260901153030 86 209 3.0 9.0 0.00 0.00 0.00 41 1017.0
20260901151525 85 349 3.0 9.0 0.00 0.00 0.00 43 1017.1
20260901150021 83 360 6.0 10.0 0.00 0.00 0.00 44 1017.2
20260901144518 81 332 6.0 11.0 0.00 0.00 0.00 47 1017.2
20260901143012 79 346 8.0 12.0 0.00 0.00 0.00 49 1017.2
20260901141508 78 360 7.0 10.0 0.00 0.00 0.00 52 1017.3
20260901140004 76 344 9.0 13.0 0.00 0.00 0.00 55 1017.1
20260901134613 74 360 11.0 14.0 0.00 0.00 0.00 56 1017.0
20260901133054 73 335 8.0 13.0 0.00 0.00 0.00 58 1016.9
20260901131554 72 360 7.0 13.0 0.00 0.00 0.00 60 1016.6
20260901130047 72 322 10.0 13.0 0.00 0.00 0.00 59 1016.4
20260901124544 72 360 10.0 13.0 0.00 0.00 0.00 58 1016.1
20260901123041 73 360 9.0 13.0 0.00 0.00 0.00 58 1016.0
20260901121543 73 360 6.0 11.0 0.00 0.00 0.00 57 1015.9
20260901120043 73 360 8.0 12.0 0.00 0.00 0.00 58 1015.9
20260901114531 74 360 5.0 9.0 0.00 0.00 0.00 56 1015.9
20260901113030 74 360 5.0 9.0 0.00 0.00 0.00 56 1015.8
20260901111529 74 360 9.0 11.0 0.00 0.00 0.00 55 1015.8
20260901110032 75 360 8.0 11.0 0.00 0.00 0.00 55 1015.6
20260901104531 75 360 10.0 14.0 0.00 0.00 0.00 54 1015.4
20260901103025 75 360 8.0 13.0 0.00 0.00 0.00 54 1015.6
20260901101523 75 360 7.0 11.0 0.00 0.00 0.00 54 1015.6
20260901100022 75 360 7.0 10.0 0.00 0.00 0.00 54 1015.7
20260901094521 75 360 6.0 10.0 0.00 0.00 0.00 54 1015.6
20260901093018 75 360 5.0 8.0 0.00 0.00 0.00 54 1015.5
20260901091516 76 360 5.0 9.0 0.00 0.00 0.00 54 1015.5
20260901090017 76 360 6.0 11.0 0.00 0.00 0.00 53 1015.5
20260901084513 76 360 6.0 9.0 0.00 0.00 0.00 53 1015.6
20260901083021 76 355 2.0 4.0 0.00 0.00 0.00 53 1015.5
20260901081510 77 360 6.0 10.0 0.00 0.00 0.00 52 1015.4
20260901080008 77 339 3.0 10.0 0.00 0.00 0.00 52 1015.3
20260901074508 77 332 3.0 6.0 0.00 0.00 0.00 51 1015.4